sat.trackr.live / text

‹ back to catalog

GPS BIIRM-6 (PRN 07)

NORAD 32711 · 2008-012A

PAYLOAD ACTIVE UNKNOWN

§ Identity

Operator
Country
US
Launch date
2008-03-15
Launch site
AFETR
Launch vehicle
Mass (kg)
RCS (m²)
5.01

Purposes: nav

External: N2YO · Heavens-Above · Gunter

§ Orbital elements

Epoch: 2026-05-24T16:53:51.824256Z

Period
717.95 min
Inclination
54.4937°
Eccentricity
0.0210704
Mean motion
2.00571812 rev/d
Perigee alt
19,621.9 km
Apogee alt
20,741.1 km
Semi-major
26,559.6 km
B*
0.0000e+0
RAAN
150.8627°
Arg perigee
247.5365°
Mean anomaly
110.2445°
Rev number
13,328

§ Raw data

GPS BIIRM-6 (PRN 07)1 32711U 08012A   26144.70407204  .00000088  00000+0  00000+0 0  99902 32711  54.4937 150.8627 0210704 247.5365 110.2445  2.00571812133283

JSON: /api/v1/satellites/32711 · /tle

For live sub-satellite position, see the globe view (requires WebGL).

§ Visibility from observer

Set your observer location to see the next 7 days of passes ≥ 10°. The values pass through the URL so the page stays shareable.

No JS? Fill the form by hand. The geolocation button needs JavaScript.